EW5980 Weather Reports


Display with metric or nautical units.
time (UTC)temp
F
wind
direction
speed
MPH
gust
MPH
rain 1hr
in
rain 24hr
in
rain mn
in
humidity
%
barometer
mb
20260510224544 81 0.0 0.0 0.00 0.00 0.00 70 1015.6
20260510223039 81 0.0 0.0 0.00 0.00 0.00 70 1015.5
20260510221538 81 0.0 0.0 0.00 0.00 0.00 69 1015.5
20260510220046 81 0.0 0.0 0.00 0.00 0.00 69 1015.6
20260510214541 81 0.0 0.0 0.00 0.00 0.00 69 1015.5
20260510213040 81 0.0 0.0 0.00 0.00 0.00 70 1015.5
20260510211538 81 0.0 0.0 0.00 0.00 0.00 69 1015.7
20260510210043 81 0.0 0.0 0.00 0.00 0.00 69 1015.8
20260510204542 81 0.0 0.0 0.00 0.00 0.00 69 1015.8
20260510203039 81 0.0 0.0 0.00 0.00 0.00 68 1015.8
20260510201542 81 0.0 0.0 0.00 0.00 0.00 69 1015.9
20260510200043 81 0.0 0.0 0.00 0.00 0.00 69 1015.9
20260510194542 81 0.0 0.0 0.00 0.00 0.00 68 1015.9
20260510193042 81 0.0 0.0 0.00 0.00 0.00 69 1015.9
20260510191541 82 0.0 0.0 0.00 0.00 0.00 68 1015.8
20260510190044 82 0.0 0.0 0.00 0.00 0.00 67 1015.8
20260510184541 81 0.0 0.0 0.00 0.00 0.00 67 1015.8
20260510183045 81 0.0 0.0 0.00 0.00 0.00 67 1015.8
20260510181545 80 0.0 0.0 0.00 0.00 0.00 69 1016.0
20260510180041 78 0.0 0.0 0.00 0.00 0.00 68 1016.0
20260510174540 78 0.0 0.0 0.00 0.00 0.00 66 1016.3
20260510173048 77 0.0 0.0 0.00 0.00 0.00 68 1016.6
20260510171554 76 0.0 0.0 0.00 0.00 0.00 64 1016.9
20260510170046 75 0.0 0.0 0.00 0.00 0.00 58 1017.3
20260510164541 73 0.0 0.0 0.00 0.00 0.00 45 1017.5
20260510163041 72 0.0 0.0 0.00 0.00 0.00 40 1017.7
20260510161542 71 0.0 0.0 0.00 0.00 0.00 26 1018.0
20260510160042 70 0.0 0.0 0.00 0.00 0.00 22 1017.9
20260510154545 69 0.0 0.0 0.00 0.00 0.00 9 1017.8
20260510153041 68 0.0 0.0 0.00 0.00 0.00 1 1017.8
20260510151544 67 0.0 0.0 0.00 0.00 0.00 100 1017.7
20260510150048 66 0.0 0.0 0.00 0.00 0.00 100 1017.9
20260510144604 65 0.0 0.0 0.00 0.00 0.00 100 1017.6
20260510143104 65 0.0 0.0 0.00 0.00 0.00 100 1017.7
20260510141546 65 0.0 0.0 0.00 0.00 0.00 100 1017.8
20260510140046 64 0.0 0.0 0.00 0.00 0.00 100 1017.7
20260510134601 64 0.0 0.0 0.00 0.00 0.00 100 1017.5
20260510133042 64 0.0 0.0 0.00 0.00 0.00 100 1017.4
20260510131541 64 0.0 0.0 0.00 0.00 0.00 100 1017.3
20260510130041 63 0.0 0.0 0.00 0.00 0.00 100 1017.2
20260510124553 63 0.0 0.0 0.00 0.00 0.00 100 1017.1
20260510123045 63 0.0 0.0 0.00 0.00 0.00 100 1017.0
20260510121540 63 0.0 0.0 0.00 0.00 0.00 100 1016.9
20260510120041 63 0.0 0.0 0.00 0.00 0.00 100 1016.7
20260510114541 63 0.0 0.0 0.00 0.00 0.00 100 1016.4
20260510113038 63 0.0 0.0 0.00 0.00 0.00 100 1016.1
20260510111555 63 0.0 0.0 0.00 0.00 0.00 100 1015.7
20260510110043 63 0.0 0.0 0.00 0.00 0.00 100 1015.2
20260510104551 63 0.0 0.0 0.00 0.00 0.00 100 1015.2
20260510103044 63 0.0 0.0 0.00 0.00 0.00 100 1014.9
20260510101542 63 0.0 0.0 0.00 0.00 0.00 100 1014.8
20260510100046 63 0.0 0.0 0.00 0.00 0.00 100 1014.8
20260510094545 63 0.0 0.0 0.00 0.00 0.00 100 1014.7
20260510093042 62 0.0 0.0 0.00 0.00 0.00 100 1014.5
20260510091543 62 0.0 0.0 0.00 0.00 0.00 100 1014.3
20260510090055 62 0.0 0.0 0.00 0.00 0.00 100 1014.0
20260510084541 62 0.0 0.0 0.00 0.00 0.00 100 1014.1
20260510083046 62 0.0 0.0 0.00 0.00 0.00 100 1013.9
20260510081550 63 0.0 0.0 0.00 0.00 0.00 100 1014.1
20260510080044 63 0.0 0.0 0.00 0.00 0.00 100 1013.7
20260510074542 63 0.0 0.0 0.00 0.00 0.00 100 1013.7
20260510073041 63 0.0 0.0 0.00 0.00 0.00 100 1013.7
20260510071538 64 0.0 0.0 0.00 0.00 0.00 100 1013.7
20260510070037 64 0.0 0.0 0.00 0.00 0.00 2 1013.7
20260510064546 64 0.0 0.0 0.00 0.00 0.00 3 1013.7
20260510063042 65 0.0 0.0 0.00 0.00 0.00 4 1013.6
20260510061542 65 0.0 0.0 0.00 0.00 0.00 5 1013.7
20260510060050 65 0.0 0.0 0.00 0.00 0.00 6 1013.7
20260510054540 66 0.0 0.0 0.00 0.00 0.00 7 1013.8
20260510053045 66 0.0 0.0 0.00 0.00 0.00 9 1013.8
20260510051613 67 0.0 0.0 0.00 0.00 0.00 9 1013.7
20260510050045 67 0.0 0.0 0.00 0.00 0.00 9 1013.7
20260510044543 68 0.0 0.0 0.00 0.00 0.00 11 1013.8
20260510043104 68 0.0 0.0 0.00 0.00 0.00 12 1014.0
20260510041544 68 0.0 0.0 0.00 0.00 0.00 12 1014.0
20260510040041 69 0.0 0.0 0.00 0.00 0.00 14 1014.0
20260510034550 69 0.0 0.0 0.00 0.00 0.00 15 1014.2
20260510033048 69 0.0 0.0 0.00 0.00 0.00 16 1014.3
20260510031613 69 0.0 0.0 0.00 0.00 0.00 19 1014.4
20260510030041 70 0.0 0.0 0.00 0.00 0.00 22 1014.0
20260510024545 70 0.0 0.0 0.00 0.00 0.00 22 1014.2
20260510023053 70 0.0 0.0 0.00 0.00 0.00 23 1014.0
20260510021545 70 0.0 0.0 0.00 0.00 0.00 24 1013.7
20260510020043 71 0.0 0.0 0.00 0.00 0.00 26 1013.5
20260510014544 71 0.0 0.0 0.00 0.00 0.00 29 1013.4
20260510013042 71 0.0 0.0 0.00 0.00 0.00 30 1013.2
20260510011554 72 0.0 0.0 0.00 0.00 0.00 32 1013.0
20260510010050 72 0.0 0.0 0.00 0.00 0.00 34 1012.6
20260510004544 73 0.0 0.0 0.00 0.00 0.00 37 1012.2
20260510003045 73 0.0 0.0 0.00 0.00 0.00 41 1012.1
20260510001542 74 0.0 0.0 0.00 0.00 0.00 43 1011.9
20260510000047 74 0.0 0.0 0.00 0.00 0.00 49 1011.8
20260509234541 74 0.0 0.0 0.00 0.00 0.00 50 1011.7
20260509233039 75 0.0 0.0 0.00 0.00 0.00 52 1011.6
20260509231537 75 0.0 0.0 0.00 0.00 0.00 53 1011.4
20260509230045 75 0.0 0.0 0.00 0.00 0.00 54 1011.2